Portada
METAR-TAF:

METAR-TAF

Aeroports :

Pacific Missile Test Facility Barking Sands

Kekaha, Hawaii, Estats Units d'Amèrica

latitud: 22-02-11N, longitud: 159-47-11W, altitud: 4 m

Observació

L'informe es va fer fa 40 minuts, a les 11:56 UTC
Vent 3 kt del Est/Nord-Est
Temperatura 23°C
Humitat 89%
Pressió 1016 hPa
Visibilitat: 16.1 km
Cel clar

METAR: PHBK 171156Z AUTO 07003KT 10SM CLR 23/21 A3000 RMK AO2 SLP162 6//// 7//// T02280206 10244 20228 56011 PNO

Hora: 02:36 (12:36 UTC)


TAF: manca

Observacions i pronòstics meteorològics de més de 4000 aeroports (METAR i TAF).

Les estacions disponibles són els punts grocs i vermells al mapa.

Posi el ratolí al punt desitjat per veure el nom de l'estació.

Feu clic per veure les observacions i els pronòstics meteorològics.

Per canviar el mapa: feu clic els botons verds amb una creu de color negre per apropar; al botó verd amb un guió per allunyar la imatge; o en les fletxes verdes per a mapes adjacents.


METAR-TAF: